[TLELIST] Archives

 

[TLELIST] Current TLEs

December 20th 2024 PDT

HST 1 20580U 90037B 24354.91475518 .00006933 00000-0 28777-3 0 9997 2 20580 28.4665 177.1859 0001791 280.1360 79.9032 15.21847039705310 ISS (ZARYA) 1 25544U 98067A 24355.54896247 .00015498 00000-0 27129-3 0 9995 2 25544 51.6402 112.0335 0007683 2.7554 87.6931 15.50775670487457 CXO 1 25867U 99040B 24352.96810518 .00000410 00000-0 00000-0 0 9999 2 25867 45.4209 139.5472 8685624 305.3692 359.7996 0.37804484 15262 ...Continue Reading

[TLELIST] Current TLEs

December 20th 2024 PDT

HST 1 20580U 90037B 24354.91475518 .00006933 00000-0 28777-3 0 9997 2 20580 28.4665 177.1859 0001791 280.1360 79.9032 15.21847039705310 ISS (ZARYA) 1 25544U 98067A 24355.54896247 .00015498 00000-0 27129-3 0 9995 2 25544 51.6402 112.0335 0007683 2.7554 87.6931 15.50775670487457 CXO 1 25867U 99040B 24352.96810518 .00000410 00000-0 00000-0 0 9999 2 25867 45.4209 139.5472 8685624 305.3692 359.7996 0.37804484 15262 ...Continue Reading

[TLELIST] Current TLEs

December 19th 2024 PDT

HST 1 20580U 90037B 24354.19339276 .00008128 00000-0 33891-3 0 9998 2 20580 28.4665 182.0497 0001773 270.5323 89.5067 15.21838102705209 ISS (ZARYA) 1 25544U 98067A 24354.45099304 .00016611 00000-0 29048-3 0 9993 2 25544 51.6388 117.4792 0007526 359.4927 77.2533 15.50745505487286 CXO 1 25867U 99040B 24352.96810518 .00000410 00000-0 00000-0 0 9999 2 25867 45.4209 139.5472 8685624 305.3692 359.7996 0.37804484 15262 ...Continue Reading

[TLELIST] Current TLEs

December 19th 2024 PDT

HST 1 20580U 90037B 24354.19339276 .00008128 00000-0 33891-3 0 9998 2 20580 28.4665 182.0497 0001773 270.5323 89.5067 15.21838102705209 ISS (ZARYA) 1 25544U 98067A 24354.45099304 .00016611 00000-0 29048-3 0 9993 2 25544 51.6388 117.4792 0007526 359.4927 77.2533 15.50745505487286 CXO 1 25867U 99040B 24352.96810518 .00000410 00000-0 00000-0 0 9999 2 25867 45.4209 139.5472 8685624 305.3692 359.7996 0.37804484 15262 ...Continue Reading

[TLELIST] Current TLEs

December 18th 2024 PDT

HST 1 20580U 90037B 24352.88181239 .00008797 00000-0 36771-3 0 9998 2 20580 28.4662 190.8929 0001737 252.7651 107.2753 15.21817152705267 ISS (ZARYA) 1 25544U 98067A 24353.11480821 .00016510 00000-0 28923-3 0 9992 2 25544 51.6386 124.1069 0007476 354.2197 178.2061 15.50699795487076 CXO 1 25867U 99040B 24352.96810518 .00000410 00000-0 00000-0 0 9999 2 25867 45.4209 139.5472 8685624 305.3692 359.7996 0.37804484 15262 ...Continue Reading

[TLELIST] Current TLEs

December 17th 2024 PDT

HST 1 20580U 90037B 24351.89811482 .00008518 00000-0 35597-3 0 9994 2 20580 28.4661 197.5255 0001735 239.9448 120.0973 15.21800812704857 ISS (ZARYA) 1 25544U 98067A 24352.52003994 .00015974 00000-0 28035-3 0 9995 2 25544 51.6385 127.0555 0007453 352.0326 97.9089 15.50677450486982 CXO 1 25867U 99040B 24347.67995738 .00000403 00000-0 00000-0 0 9991 2 25867 45.2638 139.9696 8693340 305.0901 0.0820 0.37810292 15235 ...Continue Reading

[TLELIST] Current TLEs

December 17th 2024 PDT

HST 1 20580U 90037B 24351.89811482 .00008518 00000-0 35597-3 0 9994 2 20580 28.4661 197.5255 0001735 239.9448 120.0973 15.21800812704857 ISS (ZARYA) 1 25544U 98067A 24352.52003994 .00015974 00000-0 28035-3 0 9995 2 25544 51.6385 127.0555 0007453 352.0326 97.9089 15.50677450486982 CXO 1 25867U 99040B 24347.67995738 .00000403 00000-0 00000-0 0 9991 2 25867 45.2638 139.9696 8693340 305.0901 0.0820 0.37810292 15235 ...Continue Reading

[TLELIST] Current TLEs

December 16th 2024 PDT

HST 1 20580U 90037B 24350.91440700 .00008939 00000-0 37412-3 0 9992 2 20580 28.4664 204.1584 0001758 227.2211 132.8235 15.21785354704702 ISS (ZARYA) 1 25544U 98067A 24350.89279255 .00017031 00000-0 29887-3 0 9990 2 25544 51.6375 135.1316 0007555 345.0591 15.0174 15.50624323486735 CXO 1 25867U 99040B 24347.67995738 .00000403 00000-0 00000-0 0 9991 2 25867 45.2638 139.9696 8693340 305.0901 0.0820 0.37810292 15235 ...Continue Reading

[TLELIST] Current TLEs

December 16th 2024 PDT

HST 1 20580U 90037B 24350.91440700 .00008939 00000-0 37412-3 0 9992 2 20580 28.4664 204.1584 0001758 227.2211 132.8235 15.21785354704702 ISS (ZARYA) 1 25544U 98067A 24350.89279255 .00017031 00000-0 29887-3 0 9990 2 25544 51.6375 135.1316 0007555 345.0591 15.0174 15.50624323486735 CXO 1 25867U 99040B 24347.67995738 .00000403 00000-0 00000-0 0 9991 2 25867 45.2638 139.9696 8693340 305.0901 0.0820 0.37810292 15235 ...Continue Reading

[TLELIST] Current TLEs

December 15th 2024 PDT

HST 1 20580U 90037B 24349.79952594 .00008297 00000-0 34685-3 0 9991 2 20580 28.4668 211.6744 0001802 213.0977 146.9504 15.21765358704537 ISS (ZARYA) 1 25544U 98067A 24350.38414332 .00015906 00000-0 27987-3 0 9999 2 25544 51.6382 137.6473 0007546 345.6420 53.1763 15.50608004486657 CXO 1 25867U 99040B 24347.67995738 .00000403 00000-0 00000-0 0 9991 2 25867 45.2638 139.9696 8693340 305.0901 0.0820 0.37810292 15235 ...Continue Reading
  • This mailing list is a public mailing list - anyone may join or leave, at any time.
  • This mailing list is announce-only.

International Space Station (ISS) / Hubble Space Telescope (HST) / Chandra X-Ray Observatory Orbital Data via EMAIL

Privacy Policy:

Private list